TimeCST,TemperatureF,Dew PointF,Humidity,Sea Level PressureIn,VisibilityMPH,Wind Direction,Wind SpeedMPH,Gust SpeedMPH,PrecipitationIn,Events,Conditions,WindDirDegrees,DateUTC
12:15 AM,66.2,59.0,78,29.97,10.0,South,15.0,21.9,N/A,,Clear,190,2012-12-03 06:15:00
12:35 AM,66.2,59.0,78,29.96,10.0,South,12.7,19.6,N/A,,Clear,190,2012-12-03 06:35:00
12:55 AM,66.2,59.0,78,29.96,10.0,South,13.8,19.6,N/A,,Clear,190,2012-12-03 06:55:00
1:15 AM,64.4,59.0,83,29.96,10.0,SSW,11.5,17.3,N/A,,Clear,200,2012-12-03 07:15:00
1:35 AM,64.4,59.0,83,29.96,10.0,South,12.7,17.3,N/A,,Clear,190,2012-12-03 07:35:00
1:55 AM,64.4,59.0,83,29.96,10.0,SSW,11.5,16.1,N/A,,Clear,200,2012-12-03 07:55:00
2:15 AM,64.4,59.0,83,29.96,10.0,SSW,12.7,-,N/A,,Clear,200,2012-12-03 08:15:00
2:35 AM,64.4,59.0,83,29.95,10.0,South,11.5,-,N/A,,Clear,190,2012-12-03 08:35:00
2:55 AM,64.4,59.0,83,29.95,10.0,SSW,12.7,18.4,N/A,,Clear,200,2012-12-03 08:55:00
3:15 AM,64.4,59.0,83,29.95,10.0,SSW,11.5,19.6,N/A,,Clear,200,2012-12-03 09:15:00
3:35 AM,64.4,59.0,83,29.95,10.0,South,15.0,-,N/A,,Clear,190,2012-12-03 09:35:00
3:55 AM,64.4,59.0,83,29.94,10.0,South,12.7,-,N/A,,Clear,190,2012-12-03 09:55:00
4:15 AM,64.4,59.0,83,29.93,10.0,South,13.8,-,N/A,,Clear,190,2012-12-03 10:15:00
4:35 AM,64.4,59.0,83,29.94,10.0,South,13.8,19.6,N/A,,Clear,190,2012-12-03 10:35:00
4:55 AM,64.4,59.0,83,29.93,10.0,South,15.0,-,N/A,,Clear,190,2012-12-03 10:55:00
5:15 AM,62.6,59.0,88,29.93,10.0,South,15.0,21.9,N/A,,Clear,180,2012-12-03 11:15:00
5:35 AM,62.6,59.0,88,29.93,10.0,South,13.8,-,N/A,,Clear,190,2012-12-03 11:35:00
5:55 AM,62.6,59.0,88,29.93,10.0,South,15.0,-,N/A,,Clear,190,2012-12-03 11:55:00
6:35 AM,64.4,59.0,83,29.94,10.0,SSW,16.1,23.0,N/A,,Clear,200,2012-12-03 12:35:00
6:55 AM,64.4,59.0,83,29.95,10.0,SSW,18.4,25.3,N/A,,Clear,200,2012-12-03 12:55:00
7:15 AM,64.4,59.0,83,29.95,10.0,SSW,17.3,21.9,N/A,,Clear,200,2012-12-03 13:15:00
7:35 AM,64.4,59.0,83,29.95,10.0,SSW,17.3,24.2,N/A,,Clear,200,2012-12-03 13:35:00
7:55 AM,64.4,59.0,83,29.95,10.0,SSW,16.1,25.3,N/A,,Clear,200,2012-12-03 13:55:00
8:15 AM,64.4,59.0,83,29.95,10.0,SSW,18.4,24.2,N/A,,Clear,200,2012-12-03 14:15:00
8:35 AM,68.0,59.0,73,29.95,10.0,SSW,17.3,23.0,N/A,,Clear,200,2012-12-03 14:35:00
8:55 AM,68.0,59.0,73,29.96,10.0,SSW,17.3,25.3,N/A,,Clear,200,2012-12-03 14:55:00
9:15 AM,69.8,59.0,68,29.96,10.0,SSW,21.9,28.8,N/A,,Scattered Clouds,200,2012-12-03 15:15:00
9:35 AM,71.6,59.0,64,29.97,10.0,SSW,18.4,31.1,N/A,,Scattered Clouds,210,2012-12-03 15:35:00
9:55 AM,71.6,59.0,64,29.96,10.0,SSW,20.7,31.1,N/A,,Clear,200,2012-12-03 15:55:00
10:15 AM,73.4,59.0,61,29.98,10.0,SSW,20.7,27.6,N/A,,Clear,210,2012-12-03 16:15:00
10:35 AM,73.4,57.2,57,29.98,10.0,SW,19.6,27.6,N/A,,Clear,220,2012-12-03 16:35:00
10:55 AM,73.4,57.2,57,29.97,10.0,SW,17.3,29.9,N/A,,Clear,220,2012-12-03 16:55:00
11:15 AM,77.0,57.2,50,29.97,10.0,SW,19.6,24.2,N/A,,Clear,220,2012-12-03 17:15:00
11:35 AM,77.0,57.2,50,29.97,10.0,SSW,17.3,21.9,N/A,,Clear,200,2012-12-03 17:35:00
11:55 AM,77.0,57.2,50,29.97,10.0,SW,16.1,23.0,N/A,,Clear,220,2012-12-03 17:55:00
12:15 PM,77.0,57.2,50,29.96,10.0,SW,15.0,26.5,N/A,,Clear,220,2012-12-03 18:15:00
12:35 PM,78.8,55.4,44,29.94,10.0,SW,20.7,25.3,N/A,,Clear,230,2012-12-03 18:35:00
1:15 PM,80.6,55.4,42,29.92,10.0,WSW,15.0,23.0,N/A,,Clear,240,2012-12-03 19:15:00
1:35 PM,80.6,55.4,42,29.91,10.0,SW,17.3,24.2,N/A,,Clear,220,2012-12-03 19:35:00
1:55 PM,82.4,55.4,39,29.89,10.0,SW,13.8,23.0,N/A,,Clear,220,2012-12-03 19:55:00
2:15 PM,82.4,53.6,37,29.89,10.0,SSW,17.3,23.0,N/A,,Clear,210,2012-12-03 20:15:00
2:35 PM,82.4,53.6,37,29.88,10.0,SSW,13.8,24.2,N/A,,Clear,210,2012-12-03 20:35:00
2:55 PM,82.4,50.0,32,29.87,10.0,SW,17.3,23.0,N/A,,Clear,220,2012-12-03 20:55:00
3:15 PM,82.4,51.8,35,29.87,10.0,SW,17.3,24.2,N/A,,Clear,220,2012-12-03 21:15:00
3:35 PM,82.4,51.8,35,29.87,10.0,WSW,16.1,21.9,N/A,,Clear,240,2012-12-03 21:35:00
3:55 PM,82.4,51.8,35,29.86,10.0,SW,13.8,42.6,N/A,,Clear,230,2012-12-03 21:55:00
4:15 PM,82.4,51.8,35,29.86,10.0,SW,13.8,-,N/A,,Clear,220,2012-12-03 22:15:00
4:35 PM,82.4,51.8,35,29.86,10.0,SW,16.1,-,N/A,,Clear,220,2012-12-03 22:35:00
4:55 PM,80.6,51.8,37,29.87,10.0,SW,10.4,21.9,N/A,,Clear,230,2012-12-03 22:55:00
5:15 PM,78.8,51.8,39,29.87,10.0,SW,6.9,-,N/A,,Clear,220,2012-12-03 23:15:00
5:35 PM,77.0,53.6,44,29.88,10.0,SW,5.8,-,N/A,,Clear,220,2012-12-03 23:35:00
5:55 PM,73.4,53.6,50,29.88,10.0,SSW,6.9,-,N/A,,Clear,210,2012-12-03 23:55:00
6:15 PM,73.4,53.6,50,29.88,10.0,SSW,8.1,-,N/A,,Clear,200,2012-12-04 00:15:00
6:35 PM,71.6,53.6,53,29.89,10.0,SSW,9.2,-,N/A,,Clear,200,2012-12-04 00:35:00
6:55 PM,71.6,53.6,53,29.90,10.0,SSW,10.4,-,N/A,,Clear,200,2012-12-04 00:55:00
7:15 PM,71.6,53.6,53,29.90,10.0,SSW,9.2,-,N/A,,Clear,200,2012-12-04 01:15:00
7:35 PM,73.4,53.6,50,29.91,10.0,South,9.2,-,N/A,,Clear,180,2012-12-04 01:35:00
7:55 PM,71.6,53.6,53,29.92,10.0,South,10.4,-,N/A,,Clear,170,2012-12-04 01:55:00
8:15 PM,71.6,55.4,57,29.92,10.0,South,11.5,17.3,N/A,,Clear,170,2012-12-04 02:15:00
8:35 PM,69.8,55.4,60,29.93,10.0,South,11.5,16.1,N/A,,Clear,170,2012-12-04 02:35:00
8:55 PM,69.8,55.4,60,29.93,10.0,South,11.5,17.3,N/A,,Clear,180,2012-12-04 02:55:00
9:15 PM,69.8,57.2,64,29.93,10.0,South,15.0,20.7,N/A,,Clear,190,2012-12-04 03:15:00
9:35 PM,69.8,57.2,64,29.93,10.0,South,15.0,18.4,N/A,,Clear,190,2012-12-04 03:35:00
9:55 PM,69.8,59.0,68,29.94,10.0,South,11.5,19.6,N/A,,Clear,190,2012-12-04 03:55:00
10:15 PM,68.0,55.4,64,29.98,10.0,West,8.1,-,N/A,,Clear,260,2012-12-04 04:15:00
10:35 PM,68.0,55.4,64,29.99,10.0,West,10.4,-,N/A,,Scattered Clouds,270,2012-12-04 04:35:00
10:55 PM,68.0,55.4,64,30.00,10.0,SW,5.8,-,N/A,,Scattered Clouds,230,2012-12-04 04:55:00
11:15 PM,66.2,55.4,68,30.00,10.0,WSW,6.9,-,N/A,,Clear,240,2012-12-04 05:15:00
11:35 PM,64.4,39.2,40,30.01,10.0,North,8.1,-,N/A,,Clear,360,2012-12-04 05:35:00
11:55 PM,62.6,32.0,32,30.02,10.0,North,10.4,-,N/A,,Clear,360,2012-12-04 05:55:00